Find Starlink 31073

NORAD ID: 58773 Int'l Des: 2024-011 Owner: SPXS Country: US Constellation: starlink operational
LEOCIRCULAR

Live Position

Loading 3D Globe...

About Starlink 31073

Description loading...

Upcoming Passes

Passes for default location (London). Set your location on the main map for personalized predictions.

Altitude History

Loading altitude history...

Two-Line Element Set

1 58773U 24011J 26123.38642661 .00001522 00000-0 63513-4 0 9990
2 58773 53.1604 119.6839 0001249 88.0170 272.0974 15.30196637128641
Epoch: May 3, 2026 • Age: 18 hours

Current Status

Altitude 486.3 km
Velocity 7.62 km/s
Sub-Earth Point -33.38°S, 51.19°E
Launch Date Jan 14, 2024
Age 2.2 years
Type internet

Technical Details

Classification Payload
Mass 730.00 kg
Dry Mass 700.00 kg
Total Mass 730.00 kg
Length 0.30 m
Diameter 4.10 m
Span 29.00 m
Shape Box + pan
Manufacturer SPXS
Bus Type Starlink V2M
Phase Status In Orbit
Owner/State SPXS/US

Most Searched